When you browse on this site, cookies collect data to enhance your experience and personalize the content and advertising you see.
Visit our Privacy Policy to learn more. By continuing to use the site, you agree to this use of cookies and data.
  • In Latvia
  • List of Countries
  • For 7 days
  • Water Temperature
  • Satellite Maps
  • Weather Map
  • Weather Widgets
  • user-avatar
    Login

    Hourly Weather Satif

    Today, 24 July, Wednesday

    Time Temperature Precipitation Wind Pressure Humidity
    00:00 +26°C° 0 mm 2 mps 674 mmHg 31%
    01:00 +26°C° 0 mm 2 mps 674 mmHg 32%
    02:00 +25°C° 0 mm 2 mps 673 mmHg 34%
    03:00 +24°C° 0 mm 2 mps 673 mmHg 35%
    04:00 +25°C° 0 mm 2 mps 673 mmHg 34%
    05:00 +25°C° 0 mm 2 mps 674 mmHg 33%
    06:00 +26°C° 0 mm 2 mps 674 mmHg 31%
    07:00 +28°C° 0 mm 3 mps 674 mmHg 28%
    08:00 +30°C° 0 mm 3 mps 675 mmHg 25%
    09:00 +32°C° 0 mm 4 mps 675 mmHg 21%
    10:00 +33°C° 0 mm 4 mps 676 mmHg 20%
    11:00 +34°C° 0 mm 4 mps 676 mmHg 18%
    12:00 +36°C° 0 mm 4 mps 676 mmHg 17%
    13:00 +36°C° 0 mm 5 mps 676 mmHg 16%
    14:00 +36°C° 0 mm 5 mps 675 mmHg 16%
    15:00 +36°C° 0 mm 6 mps 675 mmHg 16%
    16:00 +35°C° 0 mm 4 mps 675 mmHg 17%
    17:00 +35°C° 0 mm 3 mps 674 mmHg 17%
    18:00 +34°C° 0 mm 2 mps 674 mmHg 18%
    19:00 +31°C° 0 mm 2 mps 674 mmHg 22%
    20:00 +29°C° 0 mm 2 mps 674 mmHg 26%
    21:00 +28°C° 0 mm 1 mps 674 mmHg 30%
    22:00 +27°C° 0 mm 1 mps 673 mmHg 31%
    23:00 +26°C° 0 mm 1 mps 673 mmHg 33%

    Tomorrow, 25 July, Thursday

    Time Temperature Precipitation Wind Pressure Humidity
    00:00 +26°C° 0 mm 1 mps 673 mmHg 34%
    01:00 +25°C° 0 mm 1 mps 672 mmHg 34%
    02:00 +25°C° 0 mm 1 mps 672 mmHg 35%
    03:00 +24°C° 0 mm 1 mps 672 mmHg 35%
    04:00 +25°C° 0 mm 1 mps 672 mmHg 33%
    05:00 +26°C° 0 mm 1 mps 673 mmHg 31%
    06:00 +27°C° 0 mm 1 mps 673 mmHg 28%
    07:00 +29°C° 0 mm 2 mps 674 mmHg 24%
    08:00 +31°C° 0 mm 3 mps 674 mmHg 21%
    09:00 +34°C° 0 mm 4 mps 675 mmHg 17%
    10:00 +35°C° 0 mm 4 mps 675 mmHg 16%
    11:00 +36°C° 0 mm 4 mps 675 mmHg 14%
    12:00 +37°C° 0 mm 5 mps 675 mmHg 13%
    13:00 +37°C° 0 mm 5 mps 675 mmHg 13%
    14:00 +39°C° 0 mm 5 mps 675 mmHg 13%
    15:00 +39°C° 0 mm 5 mps 674 mmHg 12%
    16:00 +36°C° 0 mm 5 mps 674 mmHg 15%
    17:00 +35°C° 0 mm 4 mps 674 mmHg 18%
    18:00 +33°C° 0 mm 4 mps 673 mmHg 20%
    19:00 +31°C° 0 mm 3 mps 673 mmHg 24%
    20:00 +29°C° 0 mm 2 mps 673 mmHg 27%
    21:00 +27°C° 0 mm 1 mps 673 mmHg 30%
    22:00 +27°C° 0 mm 1 mps 673 mmHg 31%
    23:00 +24°C° 0 mm 0 mps 672 mmHg 32%

    Day after tomorrow, 26 July, Friday

    Time Temperature Precipitation Wind Pressure Humidity
    00:00 +23°C° 0 mm 0 mps 672 mmHg 33%
    01:00 +23°C° 0 mm 0 mps 672 mmHg 34%
    02:00 +22°C° 0 mm 0 mps 671 mmHg 35%
    03:00 +22°C° 0 mm 0 mps 671 mmHg 36%
    04:00 +23°C° 0 mm 0 mps 671 mmHg 33%
    05:00 +26°C° 0 mm 1 mps 672 mmHg 31%
    06:00 +27°C° 0 mm 1 mps 672 mmHg 28%
    07:00 +29°C° 0 mm 1 mps 673 mmHg 24%
    08:00 +32°C° 0 mm 2 mps 673 mmHg 19%
    09:00 +35°C° 0 mm 3 mps 674 mmHg 15%
    10:00 +36°C° 0 mm 4 mps 674 mmHg 13%
    11:00 +37°C° 0 mm 5 mps 674 mmHg 12%
    12:00 +39°C° 0 mm 6 mps 674 mmHg 11%
    13:00 +39°C° 0 mm 6 mps 674 mmHg 12%
    14:00 +39°C° 0 mm 6 mps 673 mmHg 12%
    15:00 +39°C° 0 mm 6 mps 673 mmHg 13%
    16:00 +36°C° 0 mm 6 mps 673 mmHg 16%
    17:00 +35°C° 0 mm 6 mps 672 mmHg 19%
    18:00 +33°C° 0 mm 6 mps 672 mmHg 22%
    19:00 +32°C° 0 mm 4 mps 672 mmHg 25%
    20:00 +30°C° 0 mm 2 mps 672 mmHg 28%
    21:00 +29°C° 0 mm 1 mps 672 mmHg 31%
    22:00 +28°C° 0 mm 1 mps 671 mmHg 31%
    23:00 +28°C° 0 mm 1 mps 671 mmHg 31%

    27 July, Saturday

    Time Temperature Precipitation Wind Pressure Humidity
    00:00 +27°C° 0 mm 2 mps 670 mmHg 31%
    01:00 +26°C° 0 mm 1 mps 670 mmHg 32%
    02:00 +26°C° 0 mm 1 mps 669 mmHg 33%
    03:00 +25°C° 0 mm 1 mps 668 mmHg 34%
    04:00 +26°C° 0 mm 1 mps 669 mmHg 32%
    05:00 +27°C° 0 mm 1 mps 669 mmHg 31%
    06:00 +28°C° 0 mm 1 mps 670 mmHg 29%
    07:00 +30°C° 0 mm 3 mps 670 mmHg 26%
    08:00 +33°C° 0 mm 4 mps 671 mmHg 24%
    09:00 +34°C° 0 mm 6 mps 671 mmHg 21%
    10:00 +35°C° 0 mm 7 mps 671 mmHg 20%
    11:00 +36°C° 0 mm 7 mps 671 mmHg 18%
    12:00 +38°C° 0 mm 8 mps 671 mmHg 17%
    13:00 +37°C° 0 mm 9 mps 671 mmHg 16%
    14:00 +37°C° 0 mm 9 mps 671 mmHg 15%
    15:00 +37°C° 0 mm 10 mps 671 mmHg 14%
    16:00 +34°C° 0 mm 9 mps 670 mmHg 17%
    17:00 +32°C° 0 mm 8 mps 670 mmHg 20%
    18:00 +30°C° 0 mm 7 mps 670 mmHg 22%
    19:00 +28°C° 0 mm 5 mps 670 mmHg 32%
    20:00 +26°C° 0 mm 4 mps 670 mmHg 41%
    21:00 +24°C° 0 mm 3 mps 670 mmHg 51%
    22:00 +23°C° 0 mm 2 mps 669 mmHg 56%
    23:00 +21°C° 0 mm 2 mps 669 mmHg 62%

    28 July, Sunday

    Time Temperature Precipitation Wind Pressure Humidity
    00:00 +20°C° 0 mm 2 mps 669 mmHg 67%
    01:00 +20°C° 0 mm 2 mps 668 mmHg 69%
    02:00 +19°C° 0 mm 2 mps 668 mmHg 71%
    03:00 +18°C° 0 mm 2 mps 668 mmHg 73%
    04:00 +20°C° 0 mm 1 mps 668 mmHg 70%
    05:00 +20°C° 0 mm 1 mps 669 mmHg 67%
    06:00 +20°C° 0 mm 1 mps 669 mmHg 63%
    07:00 +22°C° 0 mm 1 mps 670 mmHg 53%
    08:00 +24°C° 0 mm 2 mps 671 mmHg 43%
    09:00 +26°C° 0 mm 2 mps 671 mmHg 33%
    10:00 +27°C° 0 mm 2 mps 671 mmHg 30%
    11:00 +29°C° 0 mm 2 mps 672 mmHg 27%
    12:00 +30°C° 0 mm 2 mps 672 mmHg 25%
    13:00 +31°C° 0 mm 2 mps 672 mmHg 24%
    14:00 +31°C° 0 mm 3 mps 672 mmHg 24%
    15:00 +33°C° 0 mm 3 mps 672 mmHg 24%
    16:00 +30°C° 0 mm 4 mps 671 mmHg 29%
    17:00 +29°C° 0 mm 4 mps 671 mmHg 35%
    18:00 +28°C° 0 mm 5 mps 671 mmHg 40%
    19:00 +26°C° 0 mm 4 mps 671 mmHg 47%
    20:00 +25°C° 0 mm 3 mps 671 mmHg 54%
    21:00 +23°C° 0 mm 2 mps 671 mmHg 61%
    22:00 +23°C° 0 mm 2 mps 671 mmHg 63%
    23:00 +22°C° 0 mm 1 mps 671 mmHg 64%

    29 July, Monday

    Time Temperature Precipitation Wind Pressure Humidity
    00:00 +22°C° 0 mm 1 mps 671 mmHg 66%
    01:00 +21°C° 0 mm 1 mps 670 mmHg 68%
    02:00 +21°C° 0 mm 1 mps 670 mmHg 69%
    03:00 +20°C° 0 mm 1 mps 670 mmHg 71%
    04:00 +19°C° 0 mm 0 mps 670 mmHg 67%
    05:00 +20°C° 0 mm 0 mps 671 mmHg 64%
    06:00 +20°C° 0 mm 0 mps 671 mmHg 61%
    07:00 +24°C° 0 mm 1 mps 672 mmHg 54%
    08:00 +26°C° 0 mm 1 mps 673 mmHg 47%
    09:00 +27°C° 0 mm 1 mps 673 mmHg 40%
    10:00 +29°C° 0 mm 2 mps 674 mmHg 35%
    11:00 +31°C° 0 mm 3 mps 674 mmHg 29%
    12:00 +34°C° 0 mm 4 mps 674 mmHg 24%
    13:00 +34°C° 0 mm 4 mps 674 mmHg 25%
    14:00 +34°C° 0 mm 4 mps 674 mmHg 25%
    15:00 +35°C° 0 mm 5 mps 673 mmHg 25%
    16:00 +33°C° 0 mm 4 mps 673 mmHg 30%
    17:00 +30°C° 0 mm 4 mps 672 mmHg 34%
    18:00 +29°C° 0 mm 4 mps 672 mmHg 38%
    19:00 +27°C° 0 mm 3 mps 672 mmHg 41%
    20:00 +26°C° 0 mm 3 mps 672 mmHg 43%
    21:00 +24°C° 0 mm 3 mps 672 mmHg 46%
    22:00 +24°C° 0 mm 2 mps 672 mmHg 46%
    23:00 +23°C° 0 mm 2 mps 672 mmHg 47%
    Show more